Location: Maccacari
(45.1333°N, 11.1333°E)
Time: 00:32:35
(UTC+00:00)

A-11 Canister half - Pass Details

Date: 26 January 2021
Orbit: 1525 x 1684 km, 47.3° (Epoch: 07 March)

Event Time Altitude Azimuth Distance (km) Brightness Sun altitude
Rises 13:42:56 0° 238° (WSW) 4,666 12.7 19.3°
Reaches altitude 10° 13:45:57 10° 236° (SW) 3,690 12.5 19.0°
Maximum altitude 13:55:12 75° 153° (SSE) 1,597 9.6 18.1°
Drops below altitude 10° 14:04:44 10° 71° (ENE) 3,788 10.6 17.0°
Sets 14:07:52 0° 70° (ENE) 4,795 11.1 16.7°
